Location: Obersdorf
(47.4079°N, 10.2781°E)
Time: 03:58:55
(UTC+02:00)

Envisat - Pass Details

Date: 05 October 2021
Orbit: 764 x 766 km, 98.2° (Epoch: 17 October)

Event Time Altitude Azimuth Distance (km) Brightness Sun altitude
Rises 06:23:47 0° 15° (NNE) 3,242 6.5 -10.9°
Reaches altitude 10° 06:26:07 10° 18° (NNE) 2,312 5.8 -10.5°
Maximum altitude 06:31:12 69° 102° (ESE) 818 3.4 -9.7°
Drops below altitude 10° 06:36:15 10° 186° (S) 2,294 5.4 -8.8°
Sets 06:38:33 0° 189° (S) 3,216 6.1 -8.4°
